TimeCDT,TemperatureF,Dew PointF,Humidity,Sea Level PressureIn,VisibilityMPH,Wind Direction,Wind SpeedMPH,Gust SpeedMPH,PrecipitationIn,Events,Conditions,WindDirDegrees,DateUTC
12:15 AM,37.4,26.6,65,30.14,10.0,West,6.9,-,N/A,,Clear,260,2011-10-29 05:15:00
12:35 AM,39.2,24.8,56,30.13,10.0,West,8.1,-,N/A,,Clear,260,2011-10-29 05:35:00
12:55 AM,39.2,24.8,56,30.13,10.0,WSW,4.6,-,N/A,,Clear,250,2011-10-29 05:55:00
1:15 AM,35.6,23.0,60,30.13,10.0,Calm,Calm,-,N/A,,Clear,0,2011-10-29 06:15:00
1:35 AM,35.6,23.0,60,30.12,10.0,Calm,Calm,-,N/A,,Clear,0,2011-10-29 06:35:00
1:55 AM,32.0,23.0,69,30.12,10.0,Calm,Calm,-,N/A,,Clear,0,2011-10-29 06:55:00
2:15 AM,32.0,23.0,69,30.12,10.0,Calm,Calm,-,N/A,,Clear,0,2011-10-29 07:15:00
2:55 AM,30.2,23.0,75,30.12,10.0,Calm,Calm,-,N/A,,Clear,0,2011-10-29 07:55:00
3:15 AM,30.2,23.0,75,30.11,10.0,Calm,Calm,-,N/A,,Clear,0,2011-10-29 08:15:00
3:35 AM,30.2,23.0,75,30.11,10.0,Calm,Calm,-,N/A,,Clear,0,2011-10-29 08:35:00
3:55 AM,30.2,21.2,69,30.11,10.0,Calm,Calm,-,N/A,,Clear,0,2011-10-29 08:55:00
4:15 AM,30.2,21.2,69,30.10,10.0,Calm,Calm,-,N/A,,Clear,0,2011-10-29 09:15:00
4:35 AM,30.2,23.0,75,30.09,10.0,SW,3.5,-,N/A,,Clear,230,2011-10-29 09:35:00
5:15 AM,28.4,23.0,80,30.09,10.0,South,3.5,-,N/A,,Clear,170,2011-10-29 10:15:00
5:35 AM,28.4,21.2,74,30.09,10.0,South,3.5,-,N/A,,Clear,170,2011-10-29 10:35:00
5:55 AM,26.6,21.2,80,30.09,10.0,Calm,Calm,-,N/A,,Clear,0,2011-10-29 10:55:00
6:15 AM,28.4,23.0,80,30.08,10.0,Calm,Calm,-,N/A,,Clear,0,2011-10-29 11:15:00
6:35 AM,28.4,21.2,74,30.08,10.0,East,3.5,-,N/A,,Clear,90,2011-10-29 11:35:00
6:55 AM,26.6,21.2,80,30.08,10.0,Calm,Calm,-,N/A,,Clear,0,2011-10-29 11:55:00
7:15 AM,28.4,21.2,74,30.08,10.0,Calm,Calm,-,N/A,,Clear,0,2011-10-29 12:15:00
7:35 AM,28.4,21.2,74,30.07,10.0,Calm,Calm,-,N/A,,Clear,0,2011-10-29 12:35:00
7:55 AM,28.4,21.2,74,30.07,10.0,South,3.5,-,N/A,,Clear,170,2011-10-29 12:55:00
8:15 AM,28.4,23.0,80,30.07,10.0,Calm,Calm,-,N/A,,Clear,0,2011-10-29 13:15:00
8:35 AM,28.4,23.0,80,30.07,10.0,SSE,3.5,-,N/A,,Clear,150,2011-10-29 13:35:00
8:55 AM,30.2,26.6,86,30.07,10.0,ESE,3.5,-,N/A,,Clear,120,2011-10-29 13:55:00
9:15 AM,32.0,28.4,87,30.06,10.0,SSE,4.6,-,N/A,,Clear,150,2011-10-29 14:15:00
9:35 AM,35.6,30.2,81,30.06,10.0,SE,6.9,-,N/A,,Clear,140,2011-10-29 14:35:00
9:55 AM,39.2,32.0,75,30.06,10.0,SSE,6.9,-,N/A,,Clear,160,2011-10-29 14:55:00
10:15 AM,42.8,30.2,61,30.05,10.0,South,6.9,-,N/A,,Clear,170,2011-10-29 15:15:00
10:35 AM,42.8,30.2,61,30.04,10.0,South,9.2,-,N/A,,Clear,170,2011-10-29 15:35:00
10:55 AM,46.4,32.0,57,30.04,10.0,South,8.1,-,N/A,,Clear,190,2011-10-29 15:55:00
11:15 AM,46.4,30.2,53,30.02,10.0,South,11.5,-,N/A,,Clear,180,2011-10-29 16:15:00
11:35 AM,48.2,30.2,50,30.01,10.0,South,9.2,-,N/A,,Clear,170,2011-10-29 16:35:00
11:55 AM,51.8,30.2,44,30.01,10.0,South,8.1,-,N/A,,Clear,180,2011-10-29 16:55:00
12:15 PM,53.6,30.2,41,29.99,10.0,South,11.5,-,N/A,,Clear,170,2011-10-29 17:15:00
12:55 PM,57.2,28.4,33,29.96,10.0,South,13.8,18.4,N/A,,Clear,180,2011-10-29 17:55:00
1:15 PM,59.0,28.4,31,29.95,10.0,South,12.7,19.6,N/A,,Clear,170,2011-10-29 18:15:00
1:35 PM,60.8,28.4,29,29.92,10.0,SSE,15.0,20.7,N/A,,Clear,160,2011-10-29 18:35:00
1:55 PM,60.8,28.4,29,29.89,10.0,SSE,16.1,21.9,N/A,,Clear,150,2011-10-29 18:55:00
2:15 PM,62.6,23.0,22,29.88,10.0,South,19.6,-,N/A,,Clear,170,2011-10-29 19:15:00
2:35 PM,62.6,24.8,24,29.87,10.0,SSE,16.1,20.7,N/A,,Clear,160,2011-10-29 19:35:00
2:55 PM,64.4,23.0,21,29.85,10.0,SSE,17.3,24.2,N/A,,Clear,160,2011-10-29 19:55:00
3:15 PM,62.6,23.0,22,29.83,10.0,South,18.4,26.5,N/A,,Clear,170,2011-10-29 20:15:00
3:35 PM,64.4,24.8,22,29.83,10.0,South,19.6,24.2,N/A,,Clear,170,2011-10-29 20:35:00
3:55 PM,64.4,24.8,22,29.83,10.0,South,19.6,-,N/A,,Clear,170,2011-10-29 20:55:00
4:15 PM,64.4,26.6,24,29.83,10.0,South,19.6,23.0,N/A,,Clear,180,2011-10-29 21:15:00
4:35 PM,64.4,26.6,24,29.82,10.0,SSE,13.8,21.9,N/A,,Clear,160,2011-10-29 21:35:00
4:55 PM,64.4,30.2,28,29.81,10.0,South,19.6,24.2,N/A,,Clear,190,2011-10-29 21:55:00
5:15 PM,62.6,32.0,32,29.80,10.0,South,13.8,-,N/A,,Clear,170,2011-10-29 22:15:00
5:35 PM,62.6,32.0,32,29.80,10.0,South,13.8,-,N/A,,Clear,170,2011-10-29 22:35:00
5:55 PM,60.8,30.2,31,29.79,10.0,SSE,11.5,-,N/A,,Clear,150,2011-10-29 22:55:00
6:15 PM,59.0,30.2,34,29.79,10.0,SSE,9.2,-,N/A,,Clear,160,2011-10-29 23:15:00
6:35 PM,57.2,30.2,36,29.80,10.0,SSE,8.1,-,N/A,,Clear,160,2011-10-29 23:35:00
7:15 PM,51.8,32.0,47,29.79,10.0,SSE,10.4,-,N/A,,Clear,150,2011-10-30 00:15:00
7:35 PM,51.8,32.0,47,29.79,10.0,SE,6.9,-,N/A,,Clear,140,2011-10-30 00:35:00
7:55 PM,50.0,32.0,50,29.79,10.0,SSE,8.1,-,N/A,,Clear,150,2011-10-30 00:55:00
8:15 PM,50.0,32.0,50,29.79,10.0,SSE,6.9,-,N/A,,Clear,150,2011-10-30 01:15:00
8:35 PM,51.8,32.0,47,29.79,10.0,SSE,9.2,-,N/A,,Clear,160,2011-10-30 01:35:00
8:55 PM,53.6,30.2,41,29.80,10.0,South,6.9,-,N/A,,Clear,180,2011-10-30 01:55:00
9:15 PM,51.8,30.2,44,29.79,10.0,South,6.9,-,N/A,,Scattered Clouds,180,2011-10-30 02:15:00
9:35 PM,51.8,32.0,47,29.79,10.0,South,5.8,-,N/A,,Clear,180,2011-10-30 02:35:00
9:55 PM,51.8,32.0,47,29.80,10.0,SSW,3.5,-,N/A,,Clear,200,2011-10-30 02:55:00
10:15 PM,50.0,32.0,50,29.81,10.0,NNW,5.8,-,N/A,,Clear,340,2011-10-30 03:15:00
10:35 PM,50.0,32.0,50,29.82,10.0,West,8.1,-,N/A,,Clear,260,2011-10-30 03:35:00
10:55 PM,51.8,32.0,47,29.82,10.0,West,3.5,-,N/A,,Clear,270,2011-10-30 03:55:00
11:15 PM,50.0,32.0,50,29.82,10.0,NW,3.5,-,N/A,,Clear,320,2011-10-30 04:15:00
11:35 PM,50.0,32.0,50,29.83,10.0,West,3.5,-,N/A,,Scattered Clouds,270,2011-10-30 04:35:00
11:55 PM,51.8,33.8,50,29.83,10.0,NW,3.5,-,N/A,,Scattered Clouds,310,2011-10-30 04:55:00